Weather in Cetinje

Montenegro     42°23′23″N   18°55′28″E
temp.,
°C
wind,
m/s
gust,
m/s
humid.,
%
clouds,
%
prec.,
mm/h
press.,
hPa
HPBL,
m
15 april, thu
thu1523:00+3ne128994 0.4 1020281
02:00+1nnw348216 0.4 102182
05:00−1nnw347988 0.0 102165
08:00+3n33660 0.0 1021231
11:00+8nne115022 0.0 10191381
14:00+10s2347100 0.0 10181868
17:00+8ssw216423 0.3 1018885
20:00+4wnw11805 0.6 101911
16 april, fri
fri1623:00+3n228534 0.0 102115
02:00+2nnw338123 0.0 102049
05:00+1n3381100 0.0 102046
08:00+4n236796 0.0 1019200
11:00+10ene2248100 0.0 1018957
14:00+11ese2241100 0.0 10161277
17:00+9se2266100 0.1 1015349
20:00+6nw0173100 0.1 101611
17 april, sat
sat1723:00+6n1176100 0.1 101613
02:00+5ne2286100 0.4 1015173
05:00+4n3489100 0.3 1013193
08:00+6n3478100 0.3 1012233
11:00+7n3485100 0.8 1010307
14:00+6n3386100 1.2 1009297
17:00+5n3495100 3.1 1010231
20:00+5n2393100 4.9 1010124
18 april, sun
sun1823:00+5n2293100 0.7 1010101
02:00+4n1296100 4.1 1011107
05:00+4nne1196100 1.5 101180
08:00+5ese0095100 1.8 101297
11:00+5sse2299100 1.6 1014171
14:00+7se1191100 2.9 1014383
17:00+7se229393 0.6 1014346
20:00+5ese119690 0.8 101541
19 april, mon
mon1923:00+4nnw229125 0.0 101517
02:00+3nnw33895 0.0 101346
05:00+2nnw348858 0.0 101252
08:00+6n237886 0.0 1011168
11:00+11nne126096 0.0 10081037
14:00+11se115999 0.4 10071314
17:00+11wnw016681 1.3 1007731
20:00+7e1183100 4.0 100811